Tracking 25620 objects as of 18-May-2022
HD Live streaming from Space Station
objects crossing your sky now

DELTA 1 DEB

Track DELTA 1 DEB now!
10-day predictions


NORAD ID: 2775
Int'l Code: 1966-087D
Perigee: 1,286.2 km
Apogee: 1,478.7 km
Inclination: 101.1 °
Period: 113.2 minutes
Semi major axis: 7753 km
RCS: 0.079 m2 (small)
Launch date: October 2, 1966
Source: United States (US)
Launch site: AIR FORCE WESTERN TEST RANGE (AFWTR)

Note: This is SATELLITE DEBRIS
aabbcc
Your satellite tracking list
Your tracking list is empty




NASA's NSSDC Master Catalog

Two Line Element Set (TLE):
1 02775U 66087D   22137.14343678 -.00000032  00000-0  56962-4 0  9997
2 02775 101.0573 184.5871 0124142 319.2922  59.2900 12.71625882580680
Source of the keplerian elements: AFSPC